STARLINK-30919, 58411

Orbit data source: Space-Track

STARLINK-30919, 58411 is a payload satellite owned by SpaceX/Seattle (US) in LEO that was launched on Wed, 22 Nov 2023 UTC via an FALCON 9 launch vehicle from the Air Force Eastern Test Range (AFETR). Payload-class satellites include a variety of spacecraft equipped with specific instruments for various scientific and technological missions. These include communications satellites like Starlink; space stations such as the ISS; scientific satellites like the Hubble; Earth observation satellites from companies like Planet Labs, Umbra, and HawkEye 360; GPS; miniature CubeSats for education and research; and military/defense satellites.

Loading next visibility...
Identifier
58411, 2023-180K
Orbit
LEO
Country
Flag of USUS
Related business
Manufacturer
SpaceX/Seattle
Mission
Operational Commercial Communications
Bus & Motor
STARLINK V2M, Unknown motor
Mass
730 kg wet, ~700 kg dry
Launch date (UTC)
2023-11-22 (2 years ago)
Launch vehicle
FALCON 9
Launch site
Air Force Eastern Test Range (AFETR)
Object type
Payload
Rocket body
Debris
Shape & HBR
Box + 2 Pan, 14.5 m
Radar Cross Section
33.884 m², Large (>1 m²)

Expand to show TLE details & history
Last TLE update: 13 hours ago

TLE from 13 hours ago
0 STARLINK-30919
1 58411U 23180K   25250.25309845  .00000805  00000-0  74649-4 0  9990
2 58411  43.0028 331.6568 0001037 251.4237 108.6493 15.02543638 99900
Epoch: 2025-09-07T06:04Z
TLE epoch observation values (Epoch: 2025-09-07T06:04:27.706Z)
Latitude
0.00002°
Longitude
-106.03385°
Altitude
559.064 km
Speed
7.584 km/s
True Right ascension
22h 06m 37s
True Declination
0° 00' 00"
Sunlit
Object was in full shadow at epoch
Visualization orbit readout
Latitude
Unknown
Longitude
Unknown
Altitude
Unknown
Speed
Unknown
Apparent Right ascension
Unknown
Apparent Declination
Unknown
Sunlit
N/A
Visualization observer readout
Local Sidereal Time
11:42:27
Azimuth
Unknown
Elevation
Unknown
Doppler factor
Unknown
Orbital elements
Apogee altitude
561.699 km
Perigee altitude
560.26 km
Semi-major axis
6,939.117 km
Eccentricity
0.0001
Inclination
43.0028°
RAAN
331.6568°
Arg. of periapsis
251.4237°
True anomaly
108.66056°
Mean anomaly
108.6493°
Eccentric anomaly
108.65493°
Mean motion
3.7548 °/min
Orbital period
95.88 mins
BSTAR
0.000074649
Loading maneuver chart data...
Computing Atmospheric mass density...
Loading historical data...
Loading historical data...
Loading historical data...
Loading historical data...
Loading historical data...
Loading historical data...
Loading historical data...

Documentation

Showing up to 5 results
|